GW5292 Weather Reports


time (UTC)temp
C
wind
direction
speed
KPH
gust
KPH
rain 1hr
cm
rain 24hr
cm
rain mn
cm
humidity
%
barometer
mb
20260831170026 24 342 1.6 3.2 0.00 0.00 0.00 74 1020.2
20260831164519 25 351 1.6 4.8 0.00 0.00 0.00 72 1020.3
20260831163028 25 209 0.0 4.8 0.00 0.00 0.00 75 1020.2
20260831161532 24 12 0.0 4.8 0.00 0.00 0.00 74 1020.4
20260831160018 24 18 0.0 4.8 0.00 0.00 0.00 74 1020.3
20260831154543 24 277 1.6 6.4 0.00 0.00 0.00 75 1020.3
20260831153046 23 173 1.6 6.4 0.00 0.00 0.00 75 1020.6
20260831151527 23 13 1.6 4.8 0.00 0.00 0.00 79 1020.6
20260831150008 23 341 3.2 4.8 0.00 0.00 0.00 78 1020.6
20260831144515 22 9 0.0 3.2 0.00 0.00 0.00 81 1020.6
20260831143023 22 9 1.6 3.2 0.00 0.00 0.00 80 1020.7
20260831141529 22 9 1.6 3.2 0.00 0.00 0.00 80 1020.6
20260831140013 22 345 0.0 3.2 0.00 0.00 0.00 80 1020.8
20260831134513 22 352 0.0 3.2 0.00 0.00 0.00 81 1020.7
20260831133019 22 342 0.0 3.2 0.00 0.00 0.00 82 1020.8
20260831131528 22 23 0.0 3.2 0.00 0.00 0.00 1020.5
20260831130040 22 352 0.0 3.2 0.00 0.00 0.00 83 1020.7
20260831124512 21 59 0.0 3.2 0.00 0.00 0.00 85 1020.6
20260831123030 21 325 1.6 4.8 0.00 0.00 0.00 88 1020.5
20260831121527 21 73 0.0 1.6 0.00 0.00 0.00 89 1020.5
20260831120100 20 350 0.0 0.0 0.00 0.00 0.00 91 1020.5
20260831114534 20 350 0.0 0.0 0.00 0.00 0.00 93 1020.4
20260831113023 20 350 0.0 0.0 0.00 0.00 0.00 93 1020.2
20260831111525 19 350 0.0 0.0 0.00 0.00 0.00 93 1020.2
20260831110036 19 350 0.0 0.0 0.00 0.00 0.00 92 1019.9
20260831104537 19 350 0.0 0.0 0.00 0.00 0.00 92 1019.8
20260831103037 20 350 0.0 0.0 0.00 0.00 0.00 91 1019.7
20260831101523 20 350 0.0 0.0 0.00 0.00 0.00 92 1019.5
20260831100029 19 350 0.0 0.0 0.00 0.00 0.00 92 1019.5
20260831094531 19 350 0.0 0.0 0.00 0.00 0.00 92 1019.5
20260831093034 19 350 0.0 0.0 0.00 0.00 0.00 92 1019.3
20260831091533 19 333 0.0 0.0 0.00 0.00 0.00 92 1019.3
20260831090021 19 332 0.0 0.0 0.00 0.00 0.00 91 1019.3
20260831084530 20 9 0.0 0.0 0.00 0.00 0.00 91 1019.1
20260831083032 20 9 0.0 0.0 0.00 0.00 0.00 91 1019.2
20260831081543 20 9 0.0 0.0 0.00 0.00 0.00 91 1019.1
20260831080017 20 9 0.0 0.0 0.00 0.00 0.00 92 1019.2
20260831074526 20 9 0.0 0.0 0.00 0.00 0.00 90 1019.4
20260831073030 21 9 0.0 0.0 0.00 0.00 0.00 90 1019.2
20260831071534 21 9 0.0 0.0 0.00 0.00 0.00 90 1019.1
20260831070055 21 9 0.0 0.0 0.00 0.00 0.00 90 1019.2
20260831064528 21 9 0.0 0.0 0.00 0.00 0.00 90 1019.3
20260831063027 21 9 0.0 0.0 0.00 0.00 0.00 90 1019.2
20260831061512 21 9 0.0 0.0 0.00 0.00 0.00 90 1019.3
20260831060016 21 9 0.0 0.0 0.00 0.00 0.00 89 1019.4
20260831054521 21 9 0.0 0.0 0.00 0.00 0.00 89 1019.0
20260831053028 21 9 0.0 0.0 0.00 0.00 0.00 89 1018.9
20260831051507 22 9 0.0 0.0 0.00 0.00 0.00 88 1018.8
20260831050012 22 9 0.0 0.0 0.00 0.00 0.00 89 1018.9
20260831044519 22 9 0.0 0.0 0.00 0.00 0.00 88 1019.1
20260831043026 22 9 0.0 0.0 0.00 0.00 0.00 89 1019.1
20260831041533 22 9 0.0 0.0 0.00 0.00 0.00 90 1019.2
20260831040029 22 9 0.0 0.0 0.00 0.00 0.00 90 1019.3
20260831034516 22 9 0.0 0.0 0.00 0.00 0.00 90 1019.6
20260831033024 22 9 0.0 0.0 0.00 0.00 0.00 90 1019.4
20260831031527 22 9 0.0 0.0 0.00 0.00 0.00 90 1019.4
20260831030030 22 9 0.0 0.0 0.00 0.00 0.00 89 1019.5
20260831024511 23 9 0.0 0.0 0.00 0.00 0.00 1019.7
20260831023028 23 9 0.0 0.0 0.00 0.00 0.00 89 1019.5
20260831021545 23 9 0.0 0.0 0.00 0.00 0.00 87 1019.5
20260831020026 23 9 0.0 0.0 0.00 0.00 0.00 86 1019.5
20260831014532 23 9 0.0 0.0 0.00 0.00 0.00 86 1019.4
20260831013015 23 9 0.0 0.0 0.00 0.00 0.00 86 1019.4
20260831011525 23 194 0.0 0.0 0.00 0.00 0.00 87 1019.3
20260831010052 23 194 0.0 0.0 0.00 0.00 0.00 86 1019.1
20260831004536 23 194 0.0 0.0 0.00 0.00 0.00 86 1018.8
20260831003035 23 194 0.0 0.0 0.00 0.00 0.00 86 1018.5
20260831001530 24 194 0.0 0.0 0.00 0.00 0.00 85 1018.3
20260831000027 25 194 0.0 0.0 0.00 0.00 0.00 83 1018.3
20260830234531 25 194 0.0 0.0 0.00 0.00 0.00 82 1018.2
20260830233029 25 194 0.0 0.0 0.00 0.00 0.00 81 1018.5
20260830231534 25 194 0.0 0.0 0.00 0.00 0.00 80 1018.3
20260830230019 25 194 0.0 0.0 0.00 0.00 0.00 79 1018.3
20260830224529 26 194 0.0 0.0 0.00 0.00 0.00 77 1018.4
20260830223015 26 194 0.0 0.0 0.00 0.00 0.00 75 1018.3
20260830221511 27 194 0.0 3.2 0.00 0.00 0.00 76 1018.3
20260830220003 27 194 0.0 3.2 0.00 0.00 0.00 73 1018.2
20260830214501 27 194 0.0 3.2 0.00 0.00 0.00 73 1018.1
20260830213005 27 194 0.0 3.2 0.00 0.00 0.00 72 1018.2
20260830211518 27 190 1.6 8.0 0.00 0.00 0.00 71 1018.1
20260830210015 27 209 3.2 4.8 0.00 0.00 0.00 71 1018.1
20260830204503 27 194 0.0 4.8 0.00 0.00 0.00 72 1018.1
20260830203009 27 183 1.6 6.4 0.00 0.00 0.00 72 1018.2
20260830201508 27 167 1.6 3.2 0.00 0.00 0.00 74 1018.4
20260830200014 27 198 0.0 6.4 0.00 0.00 0.00 74 1018.5
20260830194519 27 177 1.6 9.7 0.00 0.00 0.00 74 1018.5
20260830193004 27 164 3.2 4.8 0.00 0.00 0.00 76 1018.9
20260830191507 27 202 3.2 3.2 0.00 0.00 0.00 76 1019.2
20260830190016 26 198 1.6 4.8 0.00 0.00 0.00 78 1019.4
20260830184517 27 196 3.2 6.4 0.00 0.00 0.00 74 1019.7
20260830183024 27 197 1.6 4.8 0.00 0.00 0.00 76 1019.6
20260830181505 26 352 1.6 4.8 0.00 0.00 0.00 80 1019.9
20260830180010 26 194 0.0 6.4 0.00 0.00 0.00 81 1020.2
20260830174523 25 170 1.6 3.2 0.00 0.00 0.00 81 1020.4
20260830173036 25 188 0.0 3.2 0.00 0.00 0.00 81 1020.6
20260830171530 25 171 1.6 4.8 0.00 0.00 0.00 79 1020.8